Dewpoint
57 56 56 56 56 56 56 57 57 57 57 57 58 58 58 58 58 58 58 58 58 59 59 59 59 59 59 59 59 59 57 52 51 48 42 40 47 58 61 62 62 66 57 28 27 25 25 29 27 27 22 23 23 27 27 42 42 42 41 41 39 40 41 44 44 45 48 50 51 52 53 52 51 53 54 56 54 55 55 55 57 58 58 59 59 60 60 61
56 56 56 56 56 56 56 57 57 57 57 57 58 58 59 59 58 58 58 58 58 59 59 59 59 59 59 59 59 58 56 53 46 50 44 50 61 62 64 65 65 63 48 25 24 26 26 27 29 25 20 22 27 38 41 42 45 42 42 41 39 40 43 46 46 48 50 49 51 52 52 52 51 53 53 51 52 52 53 54 56 56 57 59 59 59 59 59
56 56 56 56 56 56 56 56 57 57 57 57 57 58 58 58 59 58 58 58 58 59 59 59 59 59 60 59 59 57 54 46 42 29 38 61 64 65 65 65 65 61 24 24 27 27 26 27 29 27 27 33 39 41 42 41 45 42 43 42 42 44 47 48 49 48 50 51 51 52 52 52 53 53 54 52 52 53 52 52 53 54 55 57 58 58 58 59
56 56 56 56 56 56 56 56 56 56 57 56 57 57 57 58 58 58 58 58 59 59 59 59 60 60 60 60 59 56 52 28 30 31 42 60 66 65 64 64 64 57 35 32 28 28 30 30 30 29 37 39 40 41 40 40 43 42 43 41 44 46 48 49 49 50 51 52 51 52 52 52 53 53 53 52 50 51 53 55 54 54 55 57 58 57 58 57
56 56 56 55 55 55 55 56 56 56 56 56 57 57 57 57 57 58 58 58 59 59 59 60 60 60 60 60 58 55 32 11 15 35 42 66 65 64 63 64 62 43 33 33 25 30 29 29 30 37 40 40 41 42 41 43 43 43 42 45 48 49 49 50 51 52 51 52 51 51 51 51 54 54 53 52 50 50 53 55 56 56 57 57 57 57 57 57
56 56 55 55 55 55 56 56 56 56 56 56 56 57 57 57 57 57 58 58 59 59 60 60 60 60 60 58 57 53 22 3 12 30 64 63 63 64 65 64 60 41 33 28 25 29 29 33 38 38 40 40 41 41 41 42 44 44 45 47 49 49 49 50 51 51 51 51 51 50 52 53 54 53 54 53 52 54 57 57 57 57 57 57 57 56 56 57
56 55 55 55 55 55 56 56 56 56 56 56 57 57 57 57 57 57 58 58 58 59 60 60 60 60 60 57 53 32 29 28 38 37 64 64 64 66 66 65 57 33 26 23 26 28 37 40 41 41 41 41 42 42 43 44 46 46 45 47 47 49 49 51 51 52 52 52 52 53 54 52 51 50 54 53 55 55 57 57 57 57 57 57 56 56 56 57
55 55 55 55 55 56 56 55 55 56 56 56 56 56 56 56 56 57 57 58 58 59 59 60 60 60 58 44 31 29 26 12 20 43 65 65 61 66 60 47 39 29 24 22 25 38 40 40 40 41 41 42 41 43 44 44 45 45 46 48 49 50 51 51 52 52 53 53 53 52 52 52 52 52 53 53 55 56 57 57 57 56 56 56 56 57 57 57
55 55 55 56 55 55 55 55 55 56 56 56 57 56 55 55 56 56 57 58 58 59 59 59 60 59 56 38 32 8 2 14 34 52 56 47 47 46 42 24 38 28 25 27 27 29 39 39 39 41 40 41 43 43 45 43 42 45 47 48 49 50 50 51 52 52 52 52 52 51 51 51 52 52 52 54 55 56 57 56 56 56 56 56 56 57 57 57
55 55 55 55 55 55 55 55 55 56 56 56 56 56 55 55 55 56 56 57 58 58 59 60 59 59 49 31 21 5 10 18 45 52 44 40 37 33 28 32 38 28 27 29 27 34 39 38 40 42 42 40 42 40 41 43 43 47 48 49 49 49 50 51 51 51 51 51 51 50 49 50 51 52 49 54 56 56 55 55 55 55 55 56 56 56 57 57
55 55 55 55 55 55 55 55 55 56 56 56 56 55 55 55 55 56 56 57 58 59 59 60 60 56 37 29 19 11 19 21 39 46 41 35 26 22 22 29 32 28 34 31 27 28 37 41 42 40 39 38 41 41 42 43 47 48 47 47 48 49 50 50 51 50 50 49 50 49 49 50 51 51 51 54 55 56 54 54 54 55 55 55 56 56 56 57
55 55 55 55 55 55 55 54 55 56 55 56 55 54 54 54 55 56 56 57 58 59 60 59 58 54 37 32 24 22 31 24 37 39 37 31 30 31 29 28 30 28 37 35 37 33 42 42 40 41 39 41 40 43 43 46 46 46 47 45 46 47 47 48 49 50 50 47 49 46 44 46 50 49 53 54 54 54 53 53 53 53 53 54 55 56 56 57
55 55 55 55 54 55 54 55 55 55 55 54 54 54 54 55 55 56 57 58 59 59 60 57 56 55 35 23 29 32 38 34 29 27 26 29 27 26 27 30 30 29 29 35 36 39 41 40 41 40 41 41 40 39 43 46 45 46 46 45 45 45 44 46 48 49 47 47 49 46 38 43 49 52 53 55 54 53 52 52 52 52 52 53 55 55 56 57
54 55 54 55 54 54 54 55 55 54 54 53 54 54 54 55 56 56 57 59 59 60 59 58 55 42 33 25 29 35 44 29 20 19 22 27 21 21 39 40 37 39 40 39 39 40 41 42 41 40 41 40 41 44 43 42 45 43 43 41 40 38 38 45 48 49 46 47 47 49 40 44 50 51 53 54 54 52 51 51 51 52 52 53 54 55 56 57
54 54 54 54 54 54 53 54 54 53 53 54 53 54 54 55 56 57 58 59 60 59 58 58 53 39 34 27 33 47 62 29 23 20 22 20 23 30 37 40 40 41 41 41 40 41 41 40 40 39 39 42 43 42 40 42 42 42 38 37 38 39 39 44 47 46 44 46 48 45 41 43 49 50 52 54 54 51 51 52 51 51 52 52 53 54 56 57
54 54 54 54 54 53 53 54 53 52 53 53 53 54 55 56 58 59 59 60 60 59 56 47 48 35 29 21 28 55 28 25 23 24 21 24 26 34 37 38 40 39 40 40 41 42 43 42 40 39 40 40 39 38 38 37 38 39 38 35 37 38 39 42 44 47 46 46 47 44 40 45 47 51 53 54 53 52 50 51 51 50 51 52 53 54 56 57
54 54 54 54 53 53 53 53 52 52 52 53 53 54 57 58 59 59 59 58 57 57 55 46 49 46 27 22 27 23 23 25 28 25 24 26 25 29 38 37 37 37 37 38 39 40 40 39 41 40 40 40 40 38 36 34 34 36 39 36 38 40 40 40 43 46 47 47 45 47 45 46 48 51 52 53 53 51 50 50 50 50 51 52 54 56 56 57
54 54 54 54 54 54 54 53 53 52 52 52 54 55 56 57 58 55 53 54 55 54 52 51 37 20 15 19 22 23 27 26 25 27 28 28 30 38 37 36 37 36 37 35 36 37 38 37 39 38 38 39 37 36 34 32 36 35 36 38 38 40 41 40 40 45 47 47 47 47 48 48 48 50 52 53 54 52 51 50 51 51 52 53 53 55 56 56
54 54 54 54 53 53 54 52 52 51 51 52 54 56 56 56 52 51 50 50 38 36 31 30 35 28 17 21 24 29 28 27 26 26 25 25 31 38 38 37 35 35 35 35 36 36 36 35 38 36 35 35 35 36 34 35 39 39 39 39 39 39 39 42 43 46 46 45 44 45 45 46 47 48 51 53 53 50 51 51 50 51 51 52 54 56 56 57
54 54 54 54 53 52 51 52 51 51 52 50 48 48 45 40 40 38 41 41 35 34 34 33 34 31 31 33 32 33 30 24 20 21 26 28 32 35 34 34 33 34 33 33 36 41 38 35 35 34 35 36 38 39 37 41 39 40 40 40 41 41 41 42 44 46 48 45 45 45 45 45 47 49 50 51 50 50 50 50 50 52 53 54 55 56 57 57
53 54 54 54 54 52 51 50 50 51 52 49 47 40 39 40 37 36 38 39 40 39 35 33 35 34 33 34 35 31 30 27 22 22 26 41 33 33 32 32 31 32 33 36 38 37 34 33 33 35 36 40 41 40 41 41 42 41 41 41 40 41 41 43 44 45 45 44 44 45 45 46 47 49 50 50 50 49 49 49 50 53 54 55 56 56 56 56
54 53 53 53 53 51 50 50 50 51 51 48 41 39 39 40 41 40 41 37 39 40 36 37 37 36 36 34 35 27 27 22 21 19 23 30 30 24 27 31 33 31 31 33 35 35 33 32 34 38 42 42 42 42 42 41 41 41 40 40 40 39 42 44 45 46 47 46 43 45 44 44 47 48 50 50 50 49 50 50 51 53 54 55 55 55 54 54
53 53 53 53 52 51 50 49 49 50 44 45 45 41 41 41 43 44 42 41 39 41 38 38 34 35 33 37 35 31 25 22 21 20 26 31 29 25 30 29 32 32 30 30 31 33 31 32 35 41 42 40 40 40 40 40 41 40 40 40 39 41 41 38 42 46 45 44 43 44 43 42 45 47 49 50 50 50 51 51 51 52 54 54 54 53 53 53
53 53 53 53 52 51 49 49 49 44 37 42 47 40 41 42 44 44 42 39 36 38 39 37 36 35 34 32 27 25 23 21 17 15 22 30 26 28 29 30 29 29 30 31 32 31 31 33 40 42 41 40 39 40 40 39 38 40 41 40 40 40 40 41 41 43 44 44 45 42 39 38 41 44 45 48 51 51 51 51 51 52 52 52 52 53 53 54
53 53 53 52 52 50 48 48 39 36 39 48 48 49 38 41 45 45 41 31 28 28 36 28 36 34 33 25 21 19 18 19 16 18 25 29 29 27 27 31 28 28 29 29 31 34 36 40 41 40 39 39 39 38 39 39 38 38 39 41 41 42 42 42 43 41 37 38 43 38 28 32 37 41 44 46 48 49 50 50 50 51 52 52 52 53 54 54
53 52 52 52 51 49 47 34 25 36 37 41 39 38 37 39 46 48 34 29 26 29 25 23 24 20 25 19 20 20 17 16 18 18 32 29 35 27 29 27 28 26 29 28 29 33 34 39 39 38 37 37 38 38 39 40 38 37 38 44 42 42 43 42 41 39 33 33 38 38 31 28 33 40 42 45 47 47 50 50 50 51 51 51 52 52 52 53
52 52 51 51 50 49 20 21 25 33 31 31 37 37 36 41 50 45 33 25 21 29 26 27 21 20 21 20 19 18 13 13 18 27 31 39 30 29 25 26 26 27 30 32 32 30 39 38 37 38 37 37 37 37 38 39 37 36 39 43 43 43 42 41 40 38 35 40 40 41 35 32 29 35 41 45 46 46 48 49 50 50 51 51 52 52 53 53
52 51 51 51 50 49 27 42 38 25 21 29 39 36 39 47 47 42 28 14 13 28 21 19 20 22 19 20 18 14 16 18 17 23 30 30 26 23 24 24 23 23 26 24 25 27 38 37 36 36 37 37 37 38 38 38 38 36 43 43 43 42 42 41 40 38 37 37 32 34 37 32 28 32 42 45 44 45 48 49 50 50 51 51 52 53 53 54
51 51 50 50 50 49 46 44 44 32 28 41 39 39 45 48 40 33 27 16 24 23 20 21 21 19 17 17 16 18 16 18 13 15 19 28 26 23 21 22 26 23 22 24 24 32 35 37 37 36 35 35 37 37 38 39 38 43 43 43 43 42 42 42 38 36 34 32 28 33 35 29 26 30 40 42 42 44 46 48 50 51 51 51 53 53 54 53
51 50 50 50 47 46 44 48 42 39 43 40 40 46 46 42 35 28 20 13 29 19 16 16 17 17 16 15 15 16 15 16 17 16 24 26 20 23 20 25 22 22 21 23 26 32 34 46 39 35 35 35 37 38 38 40 42 44 42 41 39 40 40 40 36 34 32 23 29 34 36 32 28 32 41 41 42 44 45 46 48 50 51 52 53 54 54 53
50 50 50 50 42 41 44 22 22 36 39 41 47 44 39 33 30 22 17 24 22 20 19 15 15 15 14 14 20 16 15 15 13 18 19 22 22 20 19 17 20 23 24 24 24 26 35 35 34 31 40 38 39 40 42 42 42 42 43 39 37 37 33 34 30 32 27 25 29 31 37 34 28 30 35 43 44 45 46 47 48 50 51 52 52 54 54 53
50 50 50 49 49 49 33 9 26 37 40 46 46 38 30 20 27 19 21 32 22 26 15 15 16 15 14 14 16 15 13 12 14 14 18 20 25 19 20 23 25 16 22 20 23 27 32 34 32 35 44 37 38 39 39 40 39 40 38 36 33 27 27 25 27 25 26 26 30 37 37 32 31 32 36 41 44 45 46 48 49 50 51 52 53 53 53 52
50 50 50 50 50 48 47 36 43 41 46 48 41 35 27 24 17 28 27 28 25 30 22 18 20 17 15 13 12 14 14 13 15 13 14 14 19 17 18 19 22 17 15 25 25 25 24 24 33 36 37 40 37 36 37 36 38 38 36 32 28 25 21 20 20 24 25 28 34 36 37 32 34 35 38 39 43 45 47 48 50 51 51 52 53 53 52 51
49 50 48 48 49 48 47 49 46 48 47 46 35 31 25 19 20 43 29 33 28 33 32 28 25 15 13 13 14 12 12 13 12 11 12 17 15 19 16 17 21 20 27 26 25 25 23 24 27 34 33 37 35 36 37 36 37 38 34 31 31 27 24 19 23 21 23 28 32 36 32 30 29 32 39 41 42 45 47 49 50 51 52 52 52 52 51 51
50 49 48 47 48 49 49 48 47 49 48 36 29 28 21 23 27 26 31 35 34 34 28 28 26 18 20 14 16 14 12 15 14 14 16 13 16 20 19 15 19 24 24 20 24 24 24 26 26 34 34 36 34 37 37 37 36 36 35 30 28 28 31 26 27 26 27 29 28 32 30 32 34 38 45 45 45 47 49 50 51 51 52 52 51 51 51 51
47 37 46 44 49 50 50 50 48 47 39 28 26 19 20 25 20 31 26 34 31 29 28 27 20 16 16 16 19 10 14 14 13 13 16 14 20 19 24 20 14 19 17 23 25 19 20 22 24 31 37 36 35 37 37 36 30 34 32 32 32 32 32 28 28 30 30 27 23 24 33 34 38 39 44 46 46 48 49 49 50 51 52 51 51 51 51 51
38 44 31 38 43 52 50 49 48 46 33 26 22 17 26 28 29 32 42 31 31 33 33 23 27 18 16 15 17 17 11 11 16 11 14 17 18 19 18 18 16 17 17 23 26 26 22 26 24 28 33 36 36 37 36 34 36 33 31 33 33 35 34 29 24 24 22 23 22 30 31 31 30 29 41 44 45 47 48 49 50 50 51 51 51 51 51 51
45 44 46 46 47 51 49 48 49 42 31 26 19 39 37 23 34 35 33 31 31 35 29 25 27 15 22 14 15 13 11 9 19 11 18 21 19 22 20 20 19 15 15 22 17 23 23 14 20 25 33 34 35 35 34 35 35 33 33 37 30 24 25 26 26 19 21 20 20 27 31 32 33 34 40 41 44 46 47 48 49 49 50 50 50 50 51 51
46 41 28 32 50 50 49 50 47 37 29 21 27 16 28 34 36 36 33 31 30 31 22 27 25 28 24 18 15 18 13 14 20 21 12 17 17 19 20 21 20 23 22 20 20 29 31 18 20 20 31 31 30 33 31 33 33 29 30 29 32 29 29 25 27 27 25 16 20 23 29 28 35 36 40 41 44 46 47 47 48 49 50 50 50 50 50 51
43 32 29 37 52 50 51 51 46 39 28 18 29 29 30 35 36 38 36 31 32 25 29 28 31 27 28 26 22 21 19 13 17 19 11 24 18 22 26 25 18 27 28 24 23 32 22 32 17 20 24 32 31 30 31 32 31 31 28 27 28 31 31 30 30 26 24 20 20 20 20 26 32 38 41 41 43 46 47 47 48 49 49 50 50 50 51 50
45 30 33 41 52 51 51 47 39 36 33 37 39 37 37 34 35 37 36 33 32 31 28 34 32 22 24 22 24 22 21 18 20 18 20 21 15 14 20 23 21 21 28 24 26 29 22 23 23 24 30 30 31 31 31 32 32 31 29 27 28 28 26 22 24 31 31 27 24 21 22 27 31 40 42 42 44 46 47 47 48 48 49 49 50 51 51 50
23 19 27 38 41 51 45 37 38 40 37 34 30 37 32 40 34 35 33 32 29 28 30 30 31 25 27 25 23 27 23 18 16 21 21 18 19 18 21 25 23 26 22 22 23 28 24 31 26 22 28 29 29 23 29 32 31 28 27 28 30 31 29 24 18 24 30 30 31 30 24 26 36 42 42 43 44 45 46 47 48 48 48 49 50 51 50 50
30 20 33 42 47 46 42 37 39 35 36 39 38 34 36 33 34 34 27 28 26 26 32 29 30 27 29 27 29 27 23 25 20 20 18 21 19 17 21 25 31 29 31 30 30 33 54 28 22 23 28 29 26 27 31 29 26 24 24 32 28 28 28 27 25 29 29 31 27 27 22 29 35 42 45 44 45 45 46 47 47 48 48 49 50 50 49 49
39 39 34 39 49 48 42 34 34 34 38 40 37 37 35 35 34 31 31 33 30 32 35 34 33 30 33 30 30 27 27 23 23 20 20 22 19 21 22 24 28 28 26 26 25 36 20 23 26 20 19 22 25 27 26 28 29 28 27 31 30 32 33 33 33 32 29 31 30 27 20 25 37 43 44 44 45 45 45 46 48 48 49 49 50 49 48 47
40 42 40 43 49 45 41 39 32 31 38 39 36 37 37 36 36 33 32 28 30 27 31 31 30 32 29 31 30 30 34 24 26 25 22 25 21 24 24 25 28 27 31 37 48 30 29 30 27 19 17 14 14 15 20 22 24 29 34 33 32 29 32 29 23 26 23 27 30 24 24 29 33 42 43 44 44 44 45 47 48 48 49 49 49 48 47 45
37 25 33 41 46 44 45 45 42 39 38 38 37 40 38 37 38 39 32 33 28 27 28 28 25 27 27 28 29 27 29 28 24 27 23 22 20 22 28 25 31 28 51 56 47 38 30 34 30 27 22 22 23 25 30 32 28 24 26 31 32 35 34 33 31 26 25 28 30 31 30 32 36 40 41 43 44 44 45 47 48 48 49 48 48 47 45 44
38 27 32 33 43 42 42 45 45 43 38 40 33 38 36 37 37 39 35 33 32 32 32 28 27 28 32 30 31 31 29 31 27 27 25 22 24 23 31 49 52 57 53 48 51 37 34 27 31 29 27 26 26 29 32 32 28 27 28 29 33 32 33 31 27 26 31 30 24 32 34 32 33 39 41 42 43 44 45 47 48 48 48 47 46 44 46 40
23 33 43 45 35 32 37 36 46 44 45 43 39 41 41 41 41 37 39 36 40 40 31 36 36 29 31 32 32 28 30 29 30 25 28 26 31 30 31 31 37 43 47 36 44 35 32 24 30 28 28 32 28 28 32 32 30 30 30 30 30 34 32 30 31 33 32 24 26 31 35 33 35 39 41 42 43 44 45 47 48 49 47 45 43 42 40 37
33 35 43 47 39 40 41 43 46 45 45 45 42 41 40 41 41 41 40 38 37 38 35 31 35 37 34 33 32 31 32 26 25 28 29 29 31 33 31 30 31 36 38 37 39 39 32 28 33 31 29 30 32 33 34 31 31 30 30 30 30 33 32 31 32 35 32 31 32 33 37 35 36 38 42 42 43 44 46 48 48 47 46 44 42 40 38 35
25 36 37 43 42 42 42 44 45 45 42 45 42 43 42 41 41 41 37 37 33 36 39 36 36 40 39 33 31 32 34 32 31 28 32 32 30 34 33 34 29 31 38 35 40 37 28 22 37 33 26 27 31 35 33 32 31 29 29 29 29 32 32 33 34 37 36 33 36 36 36 36 38 41 42 45 45 47 48 48 47 47 45 43 41 39 38 34
37 45 45 39 32 36 43 44 44 42 39 37 41 43 43 43 40 44 44 40 37 36 38 37 39 40 41 38 36 34 34 34 32 31 33 33 28 32 29 31 33 31 36 35 37 34 34 23 34 29 22 26 30 35 34 32 31 30 30 31 30 31 29 34 31 37 33 32 36 35 33 34 37 43 44 45 46 46 46 47 47 46 44 42 40 38 37 35
48 47 47 40 32 41 39 42 41 40 37 40 42 43 44 45 47 46 38 39 39 37 36 38 42 39 40 38 37 37 39 35 33 32 33 32 35 37 33 32 32 34 33 34 39 28 34 34 28 24 22 21 29 34 34 31 29 27 29 32 32 34 33 37 37 39 37 38 34 29 30 35 38 45 44 43 45 45 46 47 46 45 43 41 40 38 37 35